User: anonymous   Login
Location: Unspecified
(0.0000°N, 0.0000°E)
Time: 23:16:02
(UTC+00:00)
Language:

APRIZESAT 8 - Orbit

View from above orbital plane
View from above orbital plane
View from above satellite
View from above satellite

Ground track
Ground track

The orbit data is extracted from the following two-line orbital elements,

1 39425U 13066K   23083.54023212  .00002951  00000-0  36750-3 0  9995
2 39425  97.6692  47.4279 0050064 201.4634 158.4481 14.82339655504446
Epoch (UTC): 24 March 2023 12:57:56
Eccentricity: 0.0050064
inclination: 97.6692°
perigee height: 587 km
apogee height: 657 km
right ascension of ascending node: 47.4279°
argument of perigee: 201.4634°
revolutions per day: 14.82339655
mean anomaly at epoch: 158.4481°
orbit number at epoch: 50444

The dashed part of the orbit path shows where the satellite is in the earth's shadow,  

DLR